TimePDT,TemperatureF,Dew PointF,Humidity,Sea Level PressureIn,VisibilityMPH,Wind Direction,Wind SpeedMPH,Gust SpeedMPH,PrecipitationIn,Events,Conditions,WindDirDegrees,DateUTC
12:53 AM,55.0,35.1,47,30.02,10.0,WNW,10.4,18.4,N/A,,Clear,290,2013-04-03 07:53:00
1:53 AM,51.1,35.1,54,30.03,10.0,NW,4.6,-,N/A,,Clear,320,2013-04-03 08:53:00
2:53 AM,51.1,34.0,52,30.03,10.0,NW,6.9,-,N/A,,Clear,320,2013-04-03 09:53:00
3:53 AM,46.0,34.0,63,30.04,10.0,SW,4.6,-,N/A,,Clear,230,2013-04-03 10:53:00
4:53 AM,48.0,34.0,58,30.04,10.0,NW,5.8,-,N/A,,Clear,320,2013-04-03 11:53:00
5:53 AM,46.9,33.1,59,30.04,10.0,NW,5.8,-,N/A,,Clear,310,2013-04-03 12:53:00
6:53 AM,37.0,33.1,86,30.08,10.0,Calm,Calm,-,N/A,,Clear,0,2013-04-03 13:53:00
7:53 AM,42.1,35.1,76,30.09,10.0,North,4.6,-,N/A,,Clear,10,2013-04-03 14:53:00
8:53 AM,48.0,37.0,66,30.10,10.0,NE,3.5,-,N/A,,Clear,50,2013-04-03 15:53:00
9:53 AM,54.0,39.0,57,30.09,10.0,ENE,4.6,-,N/A,,Clear,60,2013-04-03 16:53:00
10:53 AM,59.0,35.1,41,30.08,10.0,Calm,Calm,-,N/A,,Clear,0,2013-04-03 17:53:00
11:53 AM,61.0,35.1,38,30.07,10.0,East,4.6,-,N/A,,Clear,90,2013-04-03 18:53:00
12:53 PM,64.0,35.1,34,30.05,10.0,South,4.6,-,N/A,,Clear,170,2013-04-03 19:53:00
1:53 PM,66.0,35.1,32,30.05,10.0,Calm,Calm,-,N/A,,Clear,0,2013-04-03 20:53:00
2:53 PM,66.0,35.1,32,30.03,10.0,Calm,Calm,-,N/A,,Clear,0,2013-04-03 21:53:00
3:53 PM,66.0,36.0,33,30.01,10.0,SSE,3.5,-,N/A,,Clear,150,2013-04-03 22:53:00
4:53 PM,64.0,35.1,34,30.00,10.0,SSE,6.9,-,N/A,,Clear,160,2013-04-03 23:53:00
5:53 PM,63.0,37.9,40,30.00,10.0,SE,8.1,-,N/A,,Clear,140,2013-04-04 00:53:00
6:53 PM,61.0,41.0,48,29.99,10.0,Calm,Calm,-,N/A,,Clear,0,2013-04-04 01:53:00
7:53 PM,57.9,42.1,56,29.99,10.0,ESE,3.5,-,N/A,,Clear,120,2013-04-04 02:53:00
8:53 PM,59.0,39.0,48,29.98,10.0,Calm,Calm,-,N/A,,Clear,0,2013-04-04 03:53:00
9:53 PM,57.0,39.0,51,29.98,10.0,Calm,Calm,-,N/A,,Clear,0,2013-04-04 04:53:00
10:53 PM,52.0,41.0,66,29.96,10.0,NE,5.8,-,N/A,,Scattered Clouds,40,2013-04-04 05:53:00
11:53 PM,52.0,39.9,63,29.96,10.0,North,6.9,-,N/A,,Scattered Clouds,10,2013-04-04 06:53:00